TimeIST,TemperatureF,Dew PointF,Humidity,Sea Level PressureIn,VisibilityMPH,Wind Direction,Wind SpeedMPH,Gust SpeedMPH,PrecipitationIn,Events,Conditions,WindDirDegrees,DateUTC
12:00 AM,53.6,50.0,88,29.98,5.6,ENE,4.6,-,N/A,,Overcast,60,2012-10-09 23:00:00
12:30 AM,53.6,50.0,88,29.98,6.2,ENE,5.8,-,N/A,,Overcast,60,2012-10-09 23:30:00
1:00 AM,53,50,85,29.98,5,ENE,4.5,,,,Mist,70,2012-10-10 00:00:00
1:00 AM,53.6,50.0,88,29.98,5.0,ENE,4.6,-,N/A,,Overcast,70,2012-10-10 00:00:00
1:30 AM,53.6,50.0,88,29.98,5.0,East,4.6,-,N/A,,Overcast,90,2012-10-10 00:30:00
2:00 AM,51.8,50.0,94,29.95,6.2,East,3.5,-,N/A,,Overcast,90,2012-10-10 01:00:00
2:30 AM,51.8,50.0,94,29.95,6.2,East,3.5,-,N/A,,Overcast,90,2012-10-10 01:30:00
3:00 AM,51.8,50.0,94,29.95,4.3,East,4.6,-,N/A,,Overcast,90,2012-10-10 02:00:00
3:30 AM,51.8,50.0,94,29.92,6.2,East,2.3,-,N/A,,Overcast,80,2012-10-10 02:30:00
4:00 AM,51.8,50.0,94,29.92,4.3,ENE,4.6,-,N/A,,Overcast,70,2012-10-10 03:00:00
4:30 AM,51.8,48.2,88,29.92,4.3,East,5.8,-,N/A,,Overcast,80,2012-10-10 03:30:00
5:00 AM,51.8,50.0,94,29.92,3.7,East,5.8,-,N/A,,Mostly Cloudy,100,2012-10-10 04:00:00
5:30 AM,51.8,50.0,94,29.92,3.7,ESE,8.1,-,N/A,,Mostly Cloudy,110,2012-10-10 04:30:00
6:00 AM,51.8,50.0,94,29.89,3.7,East,8.1,-,N/A,,Overcast,100,2012-10-10 05:00:00
6:30 AM,51.8,50.0,94,29.89,3.1,ESE,8.1,-,N/A,,Mostly Cloudy,110,2012-10-10 05:30:00
7:00 AM,51,50,94,29.90,3,ESE,8.9,,,,Mist,110,2012-10-10 06:00:00
7:00 AM,51.8,50.0,94,29.89,6.2,ESE,8.1,-,N/A,,Overcast,110,2012-10-10 06:00:00
7:30 AM,51.8,50.0,94,29.89,1.9,East,8.1,-,N/A,,Mostly Cloudy,100,2012-10-10 06:30:00
8:00 AM,51.8,50.0,94,29.89,1.9,East,9.2,-,N/A,,Mostly Cloudy,100,2012-10-10 07:00:00
8:30 AM,51.8,50.0,94,29.89,1.9,East,9.2,-,N/A,,Mostly Cloudy,100,2012-10-10 07:30:00
9:00 AM,51.8,50.0,94,29.89,1.9,ESE,10.4,-,N/A,,Overcast,110,2012-10-10 08:00:00
9:30 AM,51.8,50.0,94,29.86,2.5,ESE,9.2,-,N/A,,Overcast,110,2012-10-10 08:30:00
10:00 AM,51.8,51.8,100,29.86,2.5,ESE,9.2,-,N/A,,Mostly Cloudy,110,2012-10-10 09:00:00
10:30 AM,53.6,51.8,94,29.86,3.7,ESE,12.7,-,N/A,,Mostly Cloudy,110,2012-10-10 09:30:00
11:00 AM,53.6,51.8,94,29.86,4.3,ESE,12.7,-,N/A,,Mostly Cloudy,110,2012-10-10 10:00:00
11:30 AM,53.6,51.8,94,29.83,4.3,ESE,10.4,-,N/A,,Mostly Cloudy,110,2012-10-10 10:30:00
12:00 PM,55.4,51.8,88,29.83,5.0,ESE,9.2,-,N/A,,Mostly Cloudy,110,2012-10-10 11:00:00
12:30 PM,55.4,53.6,94,29.83,5.6,ESE,9.2,-,N/A,,Overcast,110,2012-10-10 11:30:00
1:00 PM,57,54,86,29.82,7,ESE,8.9,,,,Mist,110,2012-10-10 12:00:00
1:00 PM,57.2,53.6,88,29.80,6.2,ESE,9.2,-,N/A,,Overcast,110,2012-10-10 12:00:00
1:30 PM,57.2,53.6,88,29.80,6.2,SE,10.4,-,N/A,,Mostly Cloudy,130,2012-10-10 12:30:00
2:00 PM,59.0,55.4,88,29.77,6.2,ESE,9.2,-,N/A,,Mostly Cloudy,120,2012-10-10 13:00:00
2:30 PM,59.0,55.4,88,29.77,6.2,ESE,9.2,-,N/A,,Mostly Cloudy,110,2012-10-10 13:30:00
3:00 PM,59.0,55.4,88,29.74,6.2,SSE,10.4,-,N/A,,Mostly Cloudy,150,2012-10-10 14:00:00
3:30 PM,59.0,55.4,88,29.74,6.2,SSE,8.1,-,N/A,,Mostly Cloudy,150,2012-10-10 14:30:00
4:00 PM,59.0,55.4,88,29.74,6.2,SSE,11.5,-,N/A,,Mostly Cloudy,150,2012-10-10 15:00:00
4:30 PM,59.0,57.2,94,29.71,6.2,SE,10.4,-,N/A,,Mostly Cloudy,140,2012-10-10 15:30:00
5:00 PM,59.0,55.4,88,29.71,6.2,SE,8.1,-,N/A,,Light Drizzle,130,2012-10-10 16:00:00
5:30 PM,59.0,57.2,94,29.71,6.2,ESE,8.1,-,N/A,,Mostly Cloudy,120,2012-10-10 16:30:00
6:00 PM,59.0,57.2,94,29.71,6.2,SE,5.8,-,N/A,,Mostly Cloudy,130,2012-10-10 17:00:00
6:30 PM,59.0,57.2,94,29.68,6.2,East,8.1,-,N/A,,Mostly Cloudy,100,2012-10-10 17:30:00
7:00 PM,59,57,90,29.69,11,ESE,8.9,,,,Partly Cloudy,120,2012-10-10 18:00:00
7:00 PM,59.0,57.2,94,29.68,6.2,ESE,9.2,-,N/A,,Mostly Cloudy,120,2012-10-10 18:00:00
7:30 PM,59.0,57.2,94,29.68,6.2,ESE,10.4,-,N/A,,Mostly Cloudy,120,2012-10-10 18:30:00
8:00 PM,59.0,57.2,94,29.65,6.2,ESE,8.1,-,N/A,,Mostly Cloudy,120,2012-10-10 19:00:00
8:30 PM,59.0,57.2,94,29.65,6.2,SE,11.5,-,N/A,,Mostly Cloudy,130,2012-10-10 19:30:00
9:00 PM,59.0,57.2,94,29.65,6.2,SE,8.1,-,N/A,,Mostly Cloudy,130,2012-10-10 20:00:00
9:30 PM,57.2,55.4,94,29.65,6.2,ESE,9.2,-,N/A,,Mostly Cloudy,110,2012-10-10 20:30:00
10:00 PM,57.2,55.4,94,29.65,6.2,SE,10.4,-,N/A,,Mostly Cloudy,130,2012-10-10 21:00:00
10:30 PM,57.2,57.2,100,29.65,6.2,SE,6.9,-,N/A,,Mostly Cloudy,140,2012-10-10 21:30:00
11:00 PM,57.2,57.2,100,29.62,6.2,SE,6.9,-,N/A,,Light Drizzle,140,2012-10-10 22:00:00
11:30 PM,57.2,57.2,100,29.62,6.2,SSE,10.4,-,N/A,Rain,Light Rain,150,2012-10-10 22:30:00